CAPE
0 0 0 0 0 0 0 0 0 0 0 101 197 228 520 646 628 546 617 688 693 704 792 700 671 593 389 249 185 209 207 228 266 290 235 232 251 273 222 168 171 229 161 102
0 0 0 0 0 0 0 0 0 0 0 1 132 235 429 729 570 617 592 666 610 564 634 624 563 514 477 360 185 199 213 225 293 298 262 263 289 301 254 360 415 416 238 334
0 0 0 0 0 0 0 0 0 0 0 4 66 129 316 608 723 657 562 579 496 493 449 485 353 304 347 404 257 249 233 234 243 349 418 454 481 556 648 679 640 744 571 527
0 0 0 0 0 0 0 0 0 0 0 0 1 0 33 353 548 651 610 534 479 449 435 559 526 444 275 313 314 328 242 191 196 251 372 450 513 574 648 922 1320 1333 1146 812
0 0 0 0 0 0 0 0 0 0 0 0 0 0 0 67 316 546 641 574 532 556 368 443 5 3 206 372 336 249 320 335 330 246 275 355 514 684 941 1702 1692 1389 939 736
0 0 0 0 0 0 0 0 0 0 0 0 0 0 0 72 117 268 503 535 513 493 377 47 0 86 284 551 354 391 630 505 709 321 464 628 927 1151 1989 1501 1351 1082 961 794
0 0 0 0 0 0 0 0 0 0 0 0 0 0 0 1 0 12 258 563 499 340 286 37 0 28 81 232 159 58 19 3 92 120 43 622 1433 1791 1402 1214 939 583 490 495
0 0 0 0 0 0 0 0 0 0 0 0 0 0 8 1 188 276 481 417 332 324 93 49 46 39 12 191 233 147 131 26 0 69 0 179 891 668 360 179 63 25 98 77
0 0 0 0 0 0 0 0 0 0 0 0 0 31 94 24 249 285 489 479 285 129 24 21 107 175 11 54 124 98 46 0 0 1 7 3 7 0 0 0 0 0 0 0
0 0 0 0 0 0 0 0 0 0 0 0 2 23 17 46 66 338 436 480 458 327 59 12 96 202 54 1 23 38 1 4 25 16 0 0 0 0 0 0 0 0 0 0
0 0 0 0 0 0 0 0 0 0 0 0 4 0 9 89 143 93 423 456 355 318 274 337 62 12 0 0 0 2 0 0 0 0 0 0 0 0 0 0 0 0 0 0
0 0 0 0 0 0 0 0 0 0 0 0 0 0 76 261 451 518 562 461 516 493 623 289 180 79 0 0 0 0 0 0 0 0 0 0 0 0 0 0 0 0 0 0
0 0 0 0 0 0 0 0 0 0 0 0 5 0 87 271 585 486 528 437 391 479 466 161 142 167 30 0 0 0 0 0 0 0 0 0 0 0 0 0 0 0 0 0
0 0 0 0 0 0 0 0 0 0 0 0 0 0 76 214 381 220 363 406 426 566 407 229 154 65 34 11 0 0 0 0 0 0 0 0 0 0 0 0 0 0 0 0
0 0 0 0 0 0 0 0 0 0 0 2 0 2 21 112 215 181 55 412 573 453 298 210 90 2 0 0 0 0 0 0 0 0 0 0 0 0 0 0 0 0 0 0
0 0 0 0 0 0 0 0 0 0 0 0 0 32 2 136 202 101 90 191 504 409 152 1 0 0 0 0 0 0 0 0 0 0 0 0 0 0 0 0 0 0 0 0
0 0 0 0 0 0 0 4 0 0 0 1 0 0 91 196 163 100 131 341 339 351 71 0 0 0 0 0 0 0 0 0 0 0 0 0 0 0 0 0 0 0 0 0
0 0 0 0 0 0 0 0 0 10 6 4 0 0 154 221 155 103 285 601 624 335 17 0 0 0 0 0 0 0 0 0 0 0 0 0 0 0 0 0 0 0 0 0
0 0 9 4 0 0 0 0 9 13 1 15 3 19 148 155 164 130 376 741 419 177 1 0 0 0 0 0 0 0 0 0 0 0 0 0 0 0 0 0 0 0 0 0
0 0 0 15 0 0 0 0 0 43 20 123 155 126 174 270 251 344 401 472 164 0 0 0 0 0 0 0 0 0 0 0 0 0 0 0 0 0 0 0 0 0 0 0
1 0 0 0 0 1 3 2 25 25 46 326 371 160 229 469 223 313 169 77 0 0 0 0 0 0 0 0 0 0 0 0 0 0 0 0 0 0 0 0 0 0 0 0
55 28 0 0 0 0 0 129 122 117 151 499 620 347 400 428 0 155 166 0 0 0 0 0 0 0 0 0 0 0 0 0 0 0 0 0 0 0 0 0 0 0 0 0
107 1 0 2 0 0 128 255 193 163 391 674 843 895 491 18 0 20 0 0 0 0 0 0 0 0 0 0 0 0 0 0 0 0 0 0 0 0 0 0 0 0 0 0
251 118 68 39 15 48 59 224 152 422 418 624 946 715 240 23 0 0 0 0 0 0 0 0 0 0 0 0 0 0 0 0 0 0 0 0 0 0 0 0 0 0 0 0
316 218 208 112 76 88 91 184 176 385 592 571 500 489 255 2 0 0 0 0 0 0 0 0 0 0 0 0 0 0 0 0 0 0 0 0 0 0 0 0 0 0 0 0
206 284 289 262 137 53 94 156 263 487 461 415 395 19 0 0 0 0 0 0 0 0 0 0 0 0 0 0 0 0 0 0 0 0 0 0 0 0 0 0 0 0 0 0
CIN
0 0 0 0 0 0 0 0 0 0 0 -107 -115 -143 -227 -247 -281 -274 -262 -235 -217 -190 -146 -181 -163 -174 -208 -241 -248 -220 -202 -198 -222 -238 -233 -228 -182 -167 -143 -110 -66 -111 -103 -114
0 0 0 0 0 0 0 0 0 0 0 -30 -145 -141 -217 -246 -211 -267 -217 -219 -206 -199 -149 -112 -143 -156 -170 -195 -251 -245 -224 -240 -231 -225 -235 -218 -197 -175 -116 -80 -72 -79 -29 -59
0 0 0 0 0 0 0 0 0 0 0 -108 -200 -137 -193 -269 -280 -309 -276 -231 -226 -164 -125 -98 -138 -169 -168 -177 -207 -209 -205 -224 -256 -249 -226 -217 -197 -141 -81 -79 -76 -57 -66 -72
0 0 0 0 0 0 0 0 0 0 0 0 -25 0 -182 -251 -272 -276 -273 -230 -244 -251 -291 -216 -175 -173 -204 -183 -232 -268 -248 -247 -273 -260 -231 -174 -124 -88 -59 -41 -36 -36 -51 -75
0 0 0 0 0 0 0 0 0 0 0 0 -3 0 0 -346 -201 -267 -251 -237 -289 -261 -285 -200 -66 -22 -283 -212 -211 -219 -209 -195 -232 -225 -198 -186 -153 -97 -53 -26 -19 -17 -39 -55
0 0 0 0 0 0 0 0 0 0 0 0 0 0 0 -141 -195 -312 -295 -304 -326 -334 -278 -131 0 -358 -262 -199 -247 -303 -237 -263 -186 -142 -56 -103 -87 -57 -10 -36 -37 -38 -37 -50
0 0 0 0 0 0 0 0 0 0 0 0 0 0 0 -54 0 -372 -334 -319 -359 -401 -358 -374 0 -361 -291 -209 -276 -386 -342 -292 -322 -210 -39 -44 -27 -22 -42 -66 -94 -127 -134 -124
0 0 0 0 0 0 0 0 0 0 0 0 0 0 -50 -136 -602 -601 -465 -451 -445 -414 -361 -336 -287 -334 -410 -286 -307 -302 -264 -187 0 -234 0 -125 -70 -147 -191 -245 -289 -319 -257 -264
0 0 0 0 0 0 0 0 0 0 0 0 0 -160 -237 -434 -471 -496 -443 -427 -428 -410 -410 -377 -277 -265 -401 -357 -283 -243 -174 0 -45 -65 -162 0 -316 0 0 0 0 0 0 0
0 0 0 0 0 0 0 0 0 0 0 0 -19 -80 -67 -139 -264 -389 -330 -351 -349 -367 -432 -461 -329 -248 -419 -310 -462 -416 -208 -703 -488 -455 0 0 0 0 0 0 0 0 0 0
0 0 0 0 0 0 0 0 0 0 0 -1 -8 0 -170 -144 -277 -332 -330 -406 -388 -383 -349 -369 -437 -163 0 0 0 -159 0 0 0 0 0 0 0 0 0 0 0 0 0 0
0 0 0 0 0 0 0 0 0 0 0 0 -2 0 -316 -326 -399 -372 -448 -496 -441 -388 -361 -460 -472 -533 0 0 0 0 0 0 0 0 0 0 0 0 0 0 0 0 0 0
0 0 0 0 0 0 0 0 0 0 0 0 -32 0 -450 -539 -451 -486 -470 -526 -484 -436 -421 -562 -495 -431 -587 0 0 0 0 0 0 0 0 0 0 0 0 0 0 0 0 0
0 0 0 0 0 0 0 0 0 0 0 0 0 0 -173 -386 -457 -552 -563 -550 -504 -416 -447 -496 -472 -533 -605 -633 0 0 0 0 0 0 0 0 0 0 0 0 0 0 0 0
0 0 0 0 0 0 0 0 0 0 0 -15 0 -38 -97 -287 -420 -518 -710 -522 -412 -413 -464 -485 -541 -197 0 0 0 0 0 0 0 0 0 0 0 0 0 0 0 0 0 0
0 0 0 0 0 0 0 0 0 0 0 0 0 -80 -427 -574 -582 -584 -635 -562 -389 -374 -457 -366 0 0 0 0 0 0 0 0 0 0 0 0 0 0 0 0 0 0 0 0
0 0 0 0 0 0 0 -72 0 0 0 -105 0 0 -399 -409 -474 -508 -539 -460 -409 -371 -483 0 0 0 0 0 0 0 0 0 0 0 0 0 0 0 0 0 0 0 0 0
0 0 0 0 0 0 0 0 0 -102 -75 -246 0 0 -276 -304 -489 -594 -497 -339 -287 -361 -491 0 0 0 0 0 0 0 0 0 0 0 0 0 0 0 0 0 0 0 0 0
0 0 -137 -41 0 0 0 0 -89 -52 -15 -240 -132 -239 -398 -501 -536 -562 -466 -283 -337 -421 -85 0 0 0 0 0 0 0 0 0 0 0 0 0 0 0 0 0 0 0 0 0
0 0 0 -110 0 0 0 0 0 -167 -57 -228 -250 -266 -293 -347 -156 -246 -457 -364 -459 -71 0 0 0 0 0 0 0 0 0 0 0 0 0 0 0 0 0 0 0 0 0 0
-115 0 0 0 0 -17 -110 -87 -244 -46 -71 -220 -257 -255 -280 -171 -238 -338 -539 -533 0 0 0 0 0 0 0 0 0 0 0 0 0 0 0 0 0 0 0 0 0 0 0 0
-37 -67 0 0 0 0 0 -194 -83 -89 -229 -154 -221 -268 -259 -307 -309 -494 -568 0 0 0 0 0 0 0 0 0 0 0 0 0 0 0 0 0 0 0 0 0 0 0 0 0
-95 -4 0 -111 0 0 -184 -66 -164 -199 -122 -161 -206 -294 -306 -343 0 -472 0 0 0 0 0 0 0 0 0 0 0 0 0 0 0 0 0 0 0 0 0 0 0 0 0 0
-307 -562 -248 -204 -181 -220 -301 -227 -229 -218 -113 -190 -257 -342 -490 -428 0 0 0 0 0 0 0 0 0 0 0 0 0 0 0 0 0 0 0 0 0 0 0 0 0 0 0 0
-279 -457 -291 -263 -302 -330 -330 -316 -302 -250 -316 -387 -498 -423 -401 -437 0 0 0 0 0 0 0 0 0 0 0 0 0 0 0 0 0 0 0 0 0 0 0 0 0 0 0 0
-357 -236 -158 -90 -368 -346 -254 -397 -418 -293 -336 -439 -433 -510 0 0 0 0 0 0 0 0 0 0 0 0 0 0 0 0 0 0 0 0 0 0 0 0 0 0 0 0 0 0
Wind_Speed
13 9 4 9 11 11 12 12 9 8 7 7 9 8 11 15 17 15 13 14 14 14 16 17 17 16 15 15 16 17 17 18 16 14 15 15 14 14 20 26 21 15 20 17
16 8 11 12 11 12 13 18 21 21 27 6 6 5 10 15 16 14 12 12 13 11 13 8 13 13 17 16 14 15 17 18 17 15 13 11 9 7 5 5 9 12 21 15
14 20 14 16 16 20 18 20 23 27 24 16 12 13 6 10 14 12 10 9 8 7 9 12 9 21 10 15 15 14 17 16 14 12 10 9 8 8 7 7 5 3 4 8
22 24 21 21 20 18 23 18 26 23 19 18 9 15 9 6 9 14 11 10 6 8 9 12 20 22 3 11 5 11 15 4 15 10 9 7 6 5 4 7 8 13 13 9
15 16 17 18 20 15 17 24 28 28 18 14 11 15 17 12 5 10 11 8 6 7 9 8 12 6 8 1 6 9 13 21 22 10 9 8 5 5 3 13 20 26 26 25
19 18 15 14 18 20 22 23 25 20 15 17 16 12 15 13 8 4 4 7 6 6 7 4 16 13 11 15 13 15 16 22 24 23 28 20 11 6 12 24 26 27 27 26
22 22 21 18 24 20 17 20 22 18 17 19 18 13 13 14 19 11 4 4 4 4 3 8 11 14 12 12 12 13 15 17 24 28 34 23 18 19 20 24 25 27 27 28
18 22 19 18 15 15 17 14 15 18 21 22 16 17 17 16 20 18 12 8 7 7 7 5 9 11 9 12 9 8 15 21 21 21 32 21 17 17 20 23 25 27 27 27
16 20 20 19 18 16 15 16 16 16 19 17 18 19 20 13 17 15 13 12 11 11 12 10 11 9 11 11 10 11 10 8 16 18 10 16 18 20 22 23 24 26 28 28
20 21 20 22 18 20 19 12 17 18 17 17 16 17 10 8 7 10 12 13 13 13 13 12 13 12 11 11 11 15 15 16 12 16 18 20 21 23 24 25 27 28 29 30
19 22 21 19 19 21 18 20 18 16 17 17 16 16 15 5 6 9 10 13 14 14 12 13 15 15 15 16 15 15 17 16 14 16 20 21 23 25 25 26 28 29 31 31
18 19 25 29 27 22 25 24 16 18 17 17 18 15 17 11 7 9 10 11 15 14 14 14 15 16 17 17 18 18 16 13 13 16 20 22 26 28 28 28 28 30 32 32
14 20 25 28 25 21 22 20 20 19 18 14 14 18 18 11 5 7 9 9 10 14 14 14 14 15 17 18 19 18 17 16 17 19 21 24 26 26 26 27 29 30 32 32
11 19 21 23 21 17 20 21 20 18 17 15 12 15 8 1 4 5 7 9 9 11 13 13 13 14 15 16 17 17 17 17 17 18 20 22 22 23 26 29 30 31 30 31
16 23 19 25 27 27 30 25 18 18 23 16 11 5 1 8 10 7 6 8 10 11 12 11 11 12 13 14 15 16 17 17 19 22 24 25 24 25 28 29 29 30 30 30
18 25 21 26 25 24 26 23 21 19 20 22 15 8 15 3 5 6 7 7 8 8 10 9 10 11 12 13 14 15 17 20 21 21 22 23 25 26 27 28 29 29 30 31
19 20 21 28 23 22 23 19 19 18 17 14 13 10 1 7 8 8 6 5 6 5 6 9 9 10 11 12 12 15 17 18 19 20 20 21 23 24 25 27 28 29 30 30
20 20 21 24 18 24 23 20 20 21 15 12 12 5 2 7 5 7 6 8 6 6 6 8 9 10 11 11 13 16 17 18 19 19 20 21 22 23 25 26 26 28 28 30
21 18 19 19 21 21 22 20 16 16 18 10 8 3 2 5 7 7 7 8 8 7 7 8 9 10 10 12 13 16 16 16 17 18 20 21 22 23 23 23 25 26 27 29
18 19 23 20 25 29 24 21 16 17 21 11 2 7 7 3 4 5 8 7 9 9 10 11 11 11 11 11 13 14 14 14 17 18 18 19 21 22 23 22 24 24 26 28
22 23 27 24 28 27 22 19 12 17 22 5 8 11 11 7 9 8 10 9 9 10 11 11 11 11 11 12 13 14 15 17 17 18 18 19 20 22 22 23 23 25 27 28
29 24 26 26 29 31 14 12 13 10 8 9 8 7 7 3 9 12 12 12 11 10 10 9 10 11 11 12 13 15 17 17 18 19 19 21 21 21 22 23 24 25 26 28
28 26 28 28 30 22 4 12 10 9 2 5 12 13 8 8 8 8 11 11 11 10 9 9 10 11 12 13 14 16 16 16 18 18 19 20 21 21 22 24 24 26 27 28
26 23 26 29 29 29 22 13 11 13 1 14 13 15 11 8 8 7 9 9 10 9 9 9 10 11 13 13 15 14 15 16 17 18 19 19 21 22 21 21 21 23 26 27
27 25 26 30 30 25 21 22 20 11 3 3 8 10 9 8 6 6 8 8 8 8 8 9 10 12 13 13 14 14 14 15 17 18 19 20 22 22 23 22 21 22 22 22
28 29 28 30 21 22 24 11 13 9 6 8 10 4 2 5 6 9 7 7 7 8 8 10 12 12 12 13 12 13 14 15 16 18 18 20 21 22 23 24 25 21 20 22
Wind_Direction
293 299 299 327 342 1 359 14 60 89 93 130 165 140 133 144 159 154 139 143 135 136 153 161 164 156 150 149 158 160 164 168 155 151 174 187 194 205 243 281 250 216 231 220
278 266 286 311 327 339 348 330 321 330 330 73 50 120 146 157 175 167 149 145 145 132 144 177 157 155 174 169 156 155 166 166 163 160 154 151 122 113 150 135 195 221 241 221
265 273 278 289 299 303 314 311 319 317 345 352 360 356 86 164 177 176 168 158 128 95 78 47 351 297 170 181 173 164 171 169 162 147 127 117 105 69 71 63 71 75 117 184
276 270 269 276 286 304 292 317 307 331 352 340 12 352 38 139 171 185 174 160 106 75 72 48 12 328 144 177 153 172 178 349 310 167 156 145 160 175 139 54 51 45 46 68
277 281 266 271 279 298 299 301 299 308 339 352 357 348 354 33 130 185 184 155 121 130 128 110 70 108 19 37 315 333 317 300 299 336 338 180 141 145 152 28 15 357 2 9
269 280 285 270 277 289 290 303 311 323 335 328 334 340 350 16 29 41 151 147 143 152 168 76 12 33 27 0 328 332 328 307 297 308 270 223 191 139 4 350 351 348 349 350
274 273 277 276 274 283 291 305 306 312 320 326 336 343 349 360 353 12 144 136 132 146 73 2 9 21 25 357 342 336 336 332 301 301 306 253 261 342 353 350 354 352 352 350
265 275 270 270 270 280 288 302 312 311 311 316 333 335 347 358 351 3 44 72 90 117 96 63 355 6 45 134 98 72 331 316 323 339 291 266 344 3 5 6 3 359 352 350
277 272 280 269 263 278 285 292 307 313 313 320 323 330 335 358 1 21 42 73 80 103 108 90 127 92 124 133 149 122 54 79 16 27 132 268 351 359 1 360 0 358 353 349
268 275 272 269 274 276 280 295 296 303 310 315 325 332 355 9 34 57 79 61 94 107 104 109 118 125 127 145 125 68 95 65 39 34 17 356 354 351 349 350 351 350 348 343
261 266 274 273 270 268 276 283 296 300 305 311 322 333 344 25 94 121 108 82 87 82 98 81 76 68 83 83 69 53 63 78 65 20 357 344 342 346 348 350 349 345 343 341
257 272 268 270 270 271 278 278 287 291 296 306 316 331 335 3 78 106 91 66 81 62 48 57 54 51 59 62 51 64 69 56 33 5 354 345 339 341 346 346 345 343 342 341
254 270 267 270 272 272 276 279 284 290 292 286 301 317 330 335 38 58 72 48 38 77 62 57 48 48 47 48 50 54 52 46 23 8 358 349 345 345 345 346 346 346 342 342
257 270 267 263 266 274 273 281 283 283 286 294 293 313 325 91 115 37 64 71 45 55 75 57 46 42 39 40 44 41 34 27 21 14 6 359 357 355 350 347 347 345 345 344
262 266 270 269 264 265 268 275 283 280 285 290 300 265 178 163 148 123 72 57 62 73 78 61 45 36 31 32 32 33 30 25 12 0 354 353 353 353 350 349 349 349 349 348
277 269 269 268 263 267 274 275 277 281 290 287 301 297 309 85 108 107 104 88 77 81 83 57 48 38 35 36 39 28 20 13 9 5 2 359 355 354 352 353 353 352 350 349
281 273 268 264 266 269 271 264 277 288 292 292 295 309 116 125 130 137 128 105 103 87 58 73 67 60 56 55 39 26 20 16 13 11 9 9 6 5 4 1 358 1 1 1
281 277 272 266 264 262 270 273 275 283 291 293 311 323 142 119 82 101 110 114 101 95 80 74 74 70 63 49 33 25 20 17 16 19 15 11 12 10 8 9 9 6 6 4
276 277 270 264 256 272 270 270 275 279 279 286 305 75 67 87 23 19 91 102 99 88 76 77 81 77 64 42 29 23 21 25 27 22 19 19 18 16 15 13 10 10 11 9
276 274 264 266 262 262 273 276 279 284 272 275 240 142 135 109 62 65 107 84 87 85 84 85 85 73 53 44 35 32 29 29 22 22 26 23 21 21 18 18 15 16 12 8
273 264 256 259 262 269 281 280 280 267 281 212 165 148 137 120 357 78 96 87 89 89 87 83 79 58 42 40 35 28 30 24 25 22 24 25 24 22 21 17 14 10 5 3
259 263 259 260 262 262 288 277 269 285 319 157 171 184 143 33 53 93 98 99 95 90 82 69 52 44 44 40 32 26 22 27 24 24 25 22 20 20 17 12 9 7 7 4
259 262 263 263 266 279 256 278 277 275 113 148 156 150 145 101 82 88 95 98 96 90 72 58 45 39 34 32 30 24 27 28 25 25 21 19 18 16 12 8 8 6 5 2
261 265 267 270 271 265 271 275 272 268 269 137 140 147 140 116 100 82 85 86 85 81 68 52 42 31 23 30 28 31 32 30 25 21 20 19 13 10 12 14 12 10 7 6
263 262 269 269 269 270 266 259 255 266 251 167 145 152 144 121 94 86 81 87 85 74 62 49 36 25 25 29 30 33 34 31 23 20 20 17 15 15 13 17 19 17 20 21
258 256 262 268 279 271 265 253 244 223 179 158 150 169 169 114 104 105 87 83 77 69 54 35 24 29 32 32 34 36 33 31 25 25 26 24 23 21 20 17 14 21 22 17